QPF
0.02 0.02 0.02 0.02 0.02 0.02 0.03 0.03 0.02 0.02 0.02 0.02 0.02 0.02 0.02 0.01 0.01 0.01 0.01 0.01 0.01 0.02 0.02 0.03 0.04 0.03 0.03 0.03 0.04 0.03 0.04 0.04 0.05 0.04 0.04 0.06 0.07 0.10 0.12 0.11 0.11 0.10 0.11
0.02 0.03 0.02 0.02 0.03 0.04 0.05 0.03 0.01 0.01 0.01 0.02 0.01 0.02 0.01 0.01 0.01 0.01 0.03 0.03 0.02 0.02 0.02 0.04 0.04 0.04 0.04 0.03 0.02 0.02 0.02 0.03 0.03 0.04 0.06 0.07 0.07 0.08 0.10 0.10 0.09 0.08 0.08
0.02 0.02 0.02 0.02 0.02 0.04 0.04 0.02 0.02 0.01 0.01 0.01 0.01 0.01 0.01 0.01 0.01 0.01 0.02 0.02 0.03 0.02 0.04 0.05 0.04 0.04 0.04 0.04 0.04 0.03 0.03 0.04 0.05 0.06 0.07 0.07 0.07 0.08 0.08 0.10 0.09 0.07 0.06
0.02 0.02 0.02 0.02 0.01 0.01 0.02 0.01 0.01 0.01 0.01 0.01 0.01 0.01 0.01 0.01 0.02 0.02 0.03 0.03 0.03 0.03 0.04 0.06 0.06 0.04 0.03 0.03 0.03 0.04 0.04 0.06 0.08 0.08 0.09 0.08 0.07 0.07 0.07 0.07 0.09 0.07 0.06
0.01 0.02 0.02 0.01 0.01 0.01 0.01 0.01 0.00 0.01 0.00 0.00 0.00 0.00 0.01 0.01 0.02 0.03 0.03 0.03 0.03 0.03 0.04 0.06 0.06 0.06 0.03 0.02 0.03 0.04 0.06 0.07 0.08 0.08 0.09 0.08 0.06 0.06 0.06 0.06 0.07 0.08 0.06
0.01 0.01 0.01 0.01 0.01 0.01 0.01 0.01 0.01 0.01 0.01 0.00 0.00 0.00 0.01 0.01 0.01 0.02 0.03 0.03 0.04 0.04 0.04 0.04 0.05 0.07 0.06 0.05 0.05 0.06 0.07 0.07 0.08 0.08 0.08 0.07 0.06 0.05 0.05 0.04 0.05 0.07 0.08
0.02 0.02 0.01 0.01 0.01 0.01 0.01 0.01 0.01 0.01 0.01 0.01 0.01 0.01 0.01 0.01 0.01 0.02 0.04 0.04 0.04 0.04 0.04 0.05 0.05 0.07 0.09 0.08 0.08 0.07 0.07 0.07 0.07 0.07 0.06 0.05 0.04 0.04 0.03 0.04 0.05 0.05 0.06
0.03 0.02 0.02 0.02 0.01 0.01 0.01 0.01 0.01 0.01 0.01 0.01 0.01 0.01 0.01 0.02 0.02 0.03 0.04 0.04 0.04 0.04 0.04 0.04 0.05 0.06 0.08 0.08 0.07 0.07 0.06 0.06 0.06 0.05 0.05 0.04 0.04 0.03 0.03 0.03 0.04 0.04 0.04
0.03 0.03 0.02 0.02 0.01 0.01 0.01 0.01 0.01 0.01 0.01 0.01 0.00 0.01 0.01 0.03 0.04 0.03 0.04 0.04 0.04 0.03 0.03 0.03 0.03 0.04 0.06 0.08 0.07 0.06 0.05 0.05 0.05 0.04 0.04 0.03 0.02 0.02 0.02 0.02 0.02 0.02 0.03
0.02 0.01 0.02 0.02 0.02 0.02 0.01 0.01 0.01 0.01 0.01 0.01 0.01 0.01 0.01 0.02 0.02 0.03 0.03 0.03 0.03 0.03 0.03 0.03 0.03 0.03 0.05 0.05 0.06 0.05 0.04 0.04 0.03 0.03 0.03 0.04 0.03 0.02 0.01 0.02 0.02 0.02 0.02
0.01 0.01 0.02 0.02 0.02 0.02 0.01 0.01 0.01 0.01 0.01 0.01 0.01 0.02 0.02 0.02 0.02 0.02 0.02 0.03 0.03 0.03 0.03 0.03 0.02 0.03 0.03 0.03 0.03 0.03 0.02 0.02 0.02 0.03 0.03 0.03 0.03 0.03 0.02 0.01 0.01 0.02 0.02
0.02 0.02 0.02 0.02 0.01 0.01 0.01 0.01 0.01 0.01 0.01 0.01 0.02 0.02 0.03 0.03 0.04 0.04 0.03 0.02 0.02 0.03 0.03 0.02 0.02 0.02 0.02 0.03 0.03 0.02 0.02 0.02 0.02 0.02 0.02 0.02 0.02 0.02 0.01 0.01 0.01 0.01 0.01
0.02 0.02 0.02 0.01 0.01 0.01 0.01 0.01 0.01 0.02 0.01 0.02 0.02 0.03 0.03 0.03 0.04 0.04 0.02 0.01 0.01 0.01 0.01 0.01 0.01 0.01 0.01 0.02 0.02 0.02 0.02 0.02 0.02 0.02 0.01 0.01 0.00 0.01 0.01 0.01 0.01 0.00 0.00
0.01 0.02 0.02 0.01 0.01 0.01 0.01 0.01 0.01 0.01 0.01 0.02 0.02 0.02 0.03 0.03 0.03 0.02 0.01 0.01 0.01 0.00 0.01 0.01 0.00 0.00 0.01 0.01 0.02 0.01 0.01 0.01 0.02 0.02 0.01 0.01 0.01 0.01 0.01 0.01 0.01 0.01 0.01
0.01 0.01 0.01 0.01 0.01 0.01 0.01 0.00 0.01 0.01 0.01 0.01 0.02 0.02 0.03 0.03 0.02 0.01 0.01 0.00 0.00 0.01 0.01 0.01 0.00 0.00 0.00 0.01 0.02 0.02 0.02 0.02 0.02 0.01 0.01 0.01 0.01 0.01 0.01 0.01 0.01 0.01 0.01
0.02 0.01 0.00 0.00 0.01 0.01 0.01 0.00 0.01 0.00 0.00 0.01 0.01 0.01 0.01 0.01 0.01 0.01 0.01 0.00 0.01 0.02 0.02 0.01 0.00 0.00 0.00 0.01 0.01 0.02 0.01 0.01 0.01 0.01 0.01 0.01 0.01 0.01 0.01 0.01 0.01 0.01 0.01
0.01 0.01 0.00 0.00 0.00 0.01 0.01 0.01 0.01 0.00 0.00 0.00 0.01 0.01 0.01 0.01 0.00 0.01 0.01 0.00 0.00 0.01 0.01 0.01 0.01 0.01 0.01 0.01 0.01 0.01 0.01 0.00 0.00 0.01 0.01 0.00 0.00 0.01 0.01 0.01 0.01 0.01 0.01
0.01 0.00 0.01 0.00 0.00 0.00 0.01 0.01 0.01 0.01 0.01 0.01 0.01 0.01 0.00 0.00 0.00 0.00 0.00 0.00 0.00 0.00 0.01 0.01 0.01 0.01 0.01 0.01 0.00 0.00 0.01 0.01 0.01 0.01 0.01 0.01 0.00 0.00 0.00 0.01 0.01 0.01 0.00
0.01 0.01 0.01 0.01 0.00 0.00 0.00 0.00 0.00 0.01 0.01 0.01 0.00 0.00 0.00 0.00 0.00 0.00 0.00 0.00 0.00 0.00 0.00 0.00 0.00 0.00 0.00 0.00 0.00 0.00 0.00 0.00 0.00 0.01 0.01 0.00 0.00 0.00 0.01 0.01 0.00 0.00 0.00
0.00 0.00 0.00 0.01 0.01 0.01 0.00 0.00 0.00 0.00 0.00 0.00 0.00 0.00 0.00 0.00 0.00 0.00 0.00 0.00 0.00 0.00 0.00 0.00 0.00 0.00 0.00 0.00 0.00 0.00 0.00 0.00 0.00 0.00 0.00 0.00 0.00 0.00 0.00 0.00 0.00 0.00 0.00
0.00 0.00 0.00 0.00 0.00 0.00 0.00 0.00 0.00 0.00 0.00 0.00 0.00 0.00 0.00 0.00 0.00 0.00 0.00 0.00 0.00 0.00 0.00 0.00 0.00 0.00 0.00 0.00 0.00 0.00 0.00 0.00 0.00 0.00 0.00 0.00 0.00 0.00 0.00 0.00 0.00 0.00 0.00
0.00 0.00 0.00 0.00 0.00 0.00 0.00 0.00 0.00 0.00 0.00 0.00 0.00 0.00 0.00 0.00 0.00 0.00 0.00 0.00 0.00 0.00 0.00 0.00 0.00 0.00 0.00 0.00 0.00 0.00 0.00 0.00 0.00 0.00 0.00 0.00 0.00 0.00 0.00 0.00 0.00 0.00 0.00
0.00 0.00 0.00 0.00 0.00 0.00 0.00 0.00 0.00 0.00 0.00 0.00 0.00 0.00 0.00 0.00 0.00 0.00 0.00 0.00 0.00 0.00 0.00 0.00 0.00 0.00 0.00 0.00 0.00 0.00 0.00 0.00 0.00 0.00 0.00 0.00 0.00 0.00 0.00 0.00 0.00 0.00 0.00
0.00 0.00 0.00 0.00 0.00 0.00 0.00 0.00 0.00 0.00 0.00 0.00 0.00 0.00 0.00 0.00 0.00 0.00 0.00 0.00 0.00 0.00 0.00 0.00 0.00 0.00 0.00 0.00 0.00 0.00 0.00 0.00 0.00 0.00 0.00 0.00 0.00 0.00 0.00 0.00 0.00 0.00 0.00
0.00 0.00 0.00 0.00 0.00 0.00 0.00 0.00 0.00 0.00 0.00 0.00 0.00 0.00 0.00 0.00 0.00 0.00 0.00 0.00 0.00 0.00 0.00 0.00 0.00 0.00 0.00 0.00 0.00 0.00 0.00 0.00 0.00 0.00 0.00 0.00 0.00 0.00 0.00 0.00 0.00 0.00 0.00
0.00 0.00 0.00 0.00 0.00 0.00 0.00 0.00 0.00 0.00 0.00 0.00 0.00 0.00 0.00 0.00 0.00 0.00 0.00 0.00 0.00 0.00 0.00 0.00 0.00 0.00 0.00 0.00 0.00 0.00 0.00 0.00 0.00 0.00 0.00 0.00 0.00 0.00 0.00 0.00 0.00 0.00 0.00
MSLP
1023.16 1023.04 1022.95 1022.87 1022.78 1022.66 1022.50 1022.28 1022.00 1021.65 1021.24 1020.76 1020.24 1019.69 1019.13 1018.58 1018.06 1017.60 1017.20 1016.89 1016.64 1016.48 1016.38 1016.33 1016.34 1016.40 1016.52 1016.71 1016.98 1017.35 1017.82 1018.39 1019.02 1019.71 1020.40 1021.05 1021.63 1022.10 1022.46 1022.71 1022.86 1022.96 1023.05
1023.39 1023.28 1023.19 1023.11 1023.02 1022.90 1022.74 1022.53 1022.25 1021.90 1021.48 1021.01 1020.48 1019.92 1019.34 1018.78 1018.25 1017.77 1017.36 1017.03 1016.78 1016.60 1016.48 1016.42 1016.42 1016.46 1016.57 1016.75 1017.02 1017.39 1017.88 1018.48 1019.16 1019.91 1020.67 1021.41 1022.07 1022.62 1023.05 1023.35 1023.54 1023.64 1023.71
1023.69 1023.60 1023.52 1023.45 1023.35 1023.23 1023.06 1022.84 1022.56 1022.21 1021.79 1021.31 1020.78 1020.22 1019.65 1019.08 1018.55 1018.07 1017.66 1017.33 1017.07 1016.88 1016.75 1016.68 1016.66 1016.69 1016.78 1016.95 1017.21 1017.58 1018.07 1018.68 1019.38 1020.15 1020.94 1021.70 1022.39 1022.97 1023.42 1023.73 1023.91 1023.99 1024.02
1024.03 1023.96 1023.89 1023.82 1023.72 1023.58 1023.40 1023.17 1022.88 1022.52 1022.11 1021.64 1021.13 1020.58 1020.03 1019.48 1018.97 1018.51 1018.11 1017.78 1017.52 1017.33 1017.20 1017.11 1017.08 1017.09 1017.16 1017.31 1017.56 1017.91 1018.38 1018.97 1019.65 1020.40 1021.17 1021.91 1022.58 1023.14 1023.55 1023.83 1023.98 1024.02 1024.00
1024.36 1024.30 1024.23 1024.15 1024.03 1023.88 1023.69 1023.44 1023.14 1022.79 1022.39 1021.95 1021.46 1020.95 1020.44 1019.93 1019.46 1019.03 1018.66 1018.36 1018.11 1017.93 1017.79 1017.70 1017.65 1017.65 1017.70 1017.83 1018.04 1018.36 1018.78 1019.32 1019.95 1020.63 1021.34 1022.01 1022.62 1023.11 1023.47 1023.69 1023.78 1023.78 1023.71
1024.63 1024.57 1024.49 1024.39 1024.25 1024.08 1023.86 1023.61 1023.31 1022.98 1022.60 1022.19 1021.75 1021.30 1020.84 1020.40 1019.98 1019.60 1019.28 1019.00 1018.78 1018.61 1018.48 1018.38 1018.33 1018.31 1018.34 1018.43 1018.61 1018.87 1019.24 1019.70 1020.23 1020.83 1021.43 1022.01 1022.52 1022.93 1023.21 1023.37 1023.41 1023.36 1023.25
1024.83 1024.75 1024.64 1024.51 1024.34 1024.15 1023.92 1023.66 1023.38 1023.06 1022.72 1022.36 1021.98 1021.59 1021.21 1020.83 1020.49 1020.17 1019.89 1019.66 1019.46 1019.31 1019.19 1019.10 1019.03 1019.00 1019.01 1019.07 1019.20 1019.41 1019.70 1020.06 1020.50 1020.98 1021.47 1021.93 1022.33 1022.64 1022.85 1022.95 1022.95 1022.86 1022.74
1024.96 1024.85 1024.70 1024.53 1024.34 1024.12 1023.88 1023.62 1023.35 1023.07 1022.78 1022.47 1022.16 1021.85 1021.54 1021.24 1020.95 1020.70 1020.47 1020.27 1020.11 1019.98 1019.87 1019.78 1019.72 1019.68 1019.67 1019.70 1019.78 1019.93 1020.14 1020.41 1020.73 1021.09 1021.46 1021.81 1022.10 1022.33 1022.47 1022.52 1022.49 1022.40 1022.27
1025.05 1024.89 1024.71 1024.50 1024.27 1024.04 1023.79 1023.55 1023.31 1023.07 1022.83 1022.59 1022.34 1022.10 1021.86 1021.62 1021.40 1021.19 1021.01 1020.84 1020.70 1020.59 1020.49 1020.41 1020.34 1020.29 1020.27 1020.28 1020.32 1020.41 1020.54 1020.73 1020.95 1021.20 1021.46 1021.70 1021.91 1022.06 1022.15 1022.17 1022.13 1022.04 1021.92
1025.12 1024.92 1024.70 1024.46 1024.21 1023.97 1023.73 1023.51 1023.30 1023.11 1022.92 1022.74 1022.57 1022.39 1022.21 1022.03 1021.86 1021.68 1021.52 1021.38 1021.25 1021.13 1021.04 1020.95 1020.89 1020.83 1020.80 1020.79 1020.80 1020.85 1020.93 1021.04 1021.17 1021.33 1021.50 1021.65 1021.78 1021.88 1021.93 1021.94 1021.90 1021.82 1021.72
1025.19 1024.96 1024.71 1024.45 1024.19 1023.95 1023.74 1023.54 1023.38 1023.23 1023.11 1022.99 1022.88 1022.76 1022.63 1022.50 1022.35 1022.20 1022.04 1021.90 1021.76 1021.64 1021.53 1021.44 1021.36 1021.30 1021.26 1021.23 1021.23 1021.24 1021.28 1021.34 1021.41 1021.50 1021.59 1021.68 1021.75 1021.81 1021.83 1021.83 1021.79 1021.73 1021.65
1025.25 1025.01 1024.75 1024.48 1024.23 1024.01 1023.82 1023.66 1023.55 1023.46 1023.39 1023.34 1023.28 1023.22 1023.13 1023.02 1022.89 1022.75 1022.59 1022.42 1022.26 1022.11 1021.98 1021.86 1021.77 1021.69 1021.64 1021.61 1021.59 1021.59 1021.61 1021.63 1021.66 1021.70 1021.74 1021.78 1021.81 1021.83 1021.84 1021.82 1021.79 1021.74 1021.66
1025.31 1025.06 1024.81 1024.55 1024.32 1024.11 1023.96 1023.84 1023.77 1023.74 1023.73 1023.74 1023.74 1023.72 1023.67 1023.59 1023.47 1023.31 1023.13 1022.94 1022.74 1022.55 1022.38 1022.23 1022.10 1022.01 1021.95 1021.91 1021.88 1021.88 1021.88 1021.89 1021.90 1021.91 1021.92 1021.92 1021.92 1021.91 1021.89 1021.86 1021.83 1021.77 1021.69
1025.33 1025.10 1024.86 1024.62 1024.40 1024.22 1024.09 1024.02 1023.99 1024.01 1024.06 1024.11 1024.17 1024.19 1024.18 1024.12 1024.01 1023.85 1023.65 1023.42 1023.17 1022.93 1022.71 1022.52 1022.36 1022.24 1022.15 1022.10 1022.08 1022.08 1022.08 1022.09 1022.09 1022.09 1022.07 1022.05 1022.02 1021.99 1021.94 1021.89 1021.83 1021.76 1021.67
1025.31 1025.10 1024.87 1024.64 1024.44 1024.28 1024.17 1024.12 1024.13 1024.19 1024.28 1024.38 1024.48 1024.55 1024.57 1024.54 1024.44 1024.27 1024.05 1023.79 1023.51 1023.22 1022.95 1022.71 1022.51 1022.36 1022.25 1022.20 1022.17 1022.17 1022.18 1022.19 1022.20 1022.19 1022.17 1022.13 1022.07 1022.01 1021.94 1021.86 1021.77 1021.66 1021.55
1025.23 1025.04 1024.82 1024.60 1024.40 1024.24 1024.14 1024.10 1024.12 1024.20 1024.32 1024.46 1024.60 1024.71 1024.77 1024.76 1024.68 1024.52 1024.29 1024.01 1023.69 1023.37 1023.05 1022.77 1022.54 1022.36 1022.24 1022.17 1022.15 1022.15 1022.18 1022.20 1022.21 1022.20 1022.17 1022.11 1022.04 1021.94 1021.84 1021.72 1021.59 1021.45 1021.30
1025.12 1024.93 1024.71 1024.49 1024.28 1024.11 1023.99 1023.94 1023.95 1024.03 1024.16 1024.32 1024.48 1024.62 1024.71 1024.74 1024.68 1024.54 1024.31 1024.03 1023.70 1023.35 1023.02 1022.71 1022.45 1022.26 1022.13 1022.06 1022.04 1022.05 1022.08 1022.11 1022.13 1022.12 1022.08 1022.01 1021.91 1021.79 1021.64 1021.48 1021.31 1021.13 1020.94
1024.98 1024.79 1024.57 1024.32 1024.09 1023.89 1023.74 1023.65 1023.64 1023.70 1023.82 1023.98 1024.15 1024.31 1024.43 1024.47 1024.44 1024.33 1024.13 1023.85 1023.53 1023.19 1022.85 1022.54 1022.28 1022.08 1021.95 1021.88 1021.87 1021.89 1021.93 1021.97 1021.99 1021.98 1021.93 1021.84 1021.71 1021.56 1021.38 1021.17 1020.95 1020.73 1020.48
1024.83 1024.64 1024.40 1024.14 1023.87 1023.62 1023.43 1023.30 1023.24 1023.27 1023.35 1023.49 1023.66 1023.82 1023.95 1024.02 1024.01 1023.92 1023.75 1023.51 1023.22 1022.90 1022.58 1022.29 1022.04 1021.86 1021.74 1021.69 1021.69 1021.72 1021.76 1021.80 1021.82 1021.80 1021.74 1021.63 1021.47 1021.28 1021.06 1020.81 1020.54 1020.26 1019.96
1024.68 1024.49 1024.24 1023.95 1023.66 1023.37 1023.13 1022.95 1022.84 1022.81 1022.86 1022.96 1023.09 1023.24 1023.36 1023.44 1023.46 1023.40 1023.26 1023.06 1022.81 1022.53 1022.25 1022.00 1021.79 1021.64 1021.54 1021.51 1021.52 1021.56 1021.61 1021.65 1021.66 1021.62 1021.54 1021.39 1021.21 1020.97 1020.71 1020.41 1020.10 1019.77 1019.41
1024.54 1024.35 1024.09 1023.80 1023.48 1023.16 1022.88 1022.65 1022.49 1022.41 1022.39 1022.45 1022.54 1022.65 1022.76 1022.83 1022.86 1022.82 1022.71 1022.55 1022.35 1022.13 1021.90 1021.70 1021.54 1021.43 1021.37 1021.36 1021.39 1021.44 1021.49 1021.51 1021.50 1021.44 1021.32 1021.15 1020.92 1020.65 1020.34 1019.99 1019.63 1019.25 1018.84
1024.36 1024.19 1023.95 1023.65 1023.33 1023.00 1022.69 1022.43 1022.22 1022.09 1022.02 1022.02 1022.06 1022.13 1022.20 1022.25 1022.27 1022.24 1022.16 1022.03 1021.88 1021.71 1021.54 1021.40 1021.29 1021.23 1021.21 1021.22 1021.27 1021.32 1021.35 1021.36 1021.33 1021.23 1021.08 1020.87 1020.60 1020.28 1019.93 1019.54 1019.13 1018.71 1018.25
1024.12 1023.98 1023.76 1023.49 1023.18 1022.86 1022.55 1022.27 1022.04 1021.86 1021.74 1021.69 1021.67 1021.68 1021.71 1021.73 1021.72 1021.69 1021.62 1021.52 1021.40 1021.28 1021.16 1021.07 1021.01 1020.99 1021.01 1021.05 1021.10 1021.15 1021.17 1021.16 1021.09 1020.96 1020.77 1020.51 1020.20 1019.85 1019.46 1019.03 1018.59 1018.13 1017.64
1023.77 1023.66 1023.48 1023.25 1022.98 1022.69 1022.39 1022.12 1021.87 1021.67 1021.51 1021.41 1021.34 1021.30 1021.27 1021.25 1021.21 1021.16 1021.08 1021.00 1020.90 1020.81 1020.74 1020.69 1020.67 1020.68 1020.72 1020.78 1020.83 1020.88 1020.89 1020.85 1020.75 1020.59 1020.36 1020.06 1019.72 1019.33 1018.90 1018.45 1017.98 1017.50 1016.99
1023.26 1023.19 1023.07 1022.89 1022.67 1022.42 1022.15 1021.89 1021.65 1021.44 1021.26 1021.12 1021.01 1020.92 1020.85 1020.78 1020.70 1020.62 1020.53 1020.44 1020.36 1020.28 1020.23 1020.21 1020.21 1020.25 1020.30 1020.37 1020.42 1020.46 1020.45 1020.39 1020.27 1020.08 1019.82 1019.50 1019.12 1018.71 1018.27 1017.80 1017.32 1016.82 1016.31
1022.58 1022.55 1022.48 1022.35 1022.18 1021.98 1021.76 1021.53 1021.31 1021.10 1020.92 1020.76 1020.62 1020.49 1020.37 1020.27 1020.15 1020.05 1019.94 1019.83 1019.74 1019.67 1019.63 1019.62 1019.63 1019.68 1019.74 1019.81 1019.86 1019.89 1019.87 1019.79 1019.65 1019.45 1019.17 1018.83 1018.44 1018.02 1017.56 1017.09 1016.62 1016.13 1015.64
Thickness
5601 5598 5595 5593 5590 5588 5586 5583 5582 5580 5580 5580 5580 5580 5581 5583 5584 5586 5589 5591 5594 5596 5598 5601 5602 5605 5609 5611 5614 5616 5617 5616 5612 5606 5605 5604 5604 5605 5605 5605 5605 5605 5604
5593 5589 5587 5585 5582 5580 5577 5575 5574 5573 5573 5573 5573 5573 5574 5575 5576 5578 5580 5583 5585 5587 5590 5592 5595 5598 5600 5603 5605 5607 5607 5607 5604 5600 5597 5597 5595 5595 5596 5596 5596 5596 5595
5587 5583 5580 5577 5574 5571 5569 5568 5567 5566 5566 5566 5566 5567 5566 5567 5568 5570 5572 5575 5577 5579 5581 5584 5587 5589 5592 5594 5596 5598 5598 5597 5596 5594 5590 5588 5587 5587 5587 5588 5588 5587 5587
5581 5577 5573 5570 5567 5564 5563 5562 5561 5560 5559 5559 5559 5559 5559 5560 5561 5562 5565 5567 5569 5570 5573 5575 5578 5581 5583 5585 5587 5588 5588 5588 5587 5587 5584 5583 5581 5580 5581 5582 5581 5581 5581
5574 5571 5567 5564 5562 5559 5557 5556 5555 5554 5554 5553 5553 5553 5552 5553 5552 5553 5557 5560 5561 5563 5565 5567 5568 5569 5571 5575 5579 5579 5581 5582 5582 5581 5579 5578 5576 5575 5576 5576 5575 5574 5573
5569 5566 5562 5560 5557 5554 5552 5551 5549 5549 5549 5549 5548 5547 5547 5545 5542 5544 5548 5552 5555 5556 5558 5560 5561 5562 5563 5565 5567 5569 5572 5575 5575 5575 5574 5573 5571 5570 5569 5570 5571 5571 5570
5563 5560 5557 5555 5552 5550 5548 5546 5545 5544 5543 5543 5542 5542 5541 5538 5537 5538 5541 5546 5548 5549 5551 5553 5556 5557 5560 5561 5561 5562 5564 5564 5566 5569 5568 5567 5566 5565 5564 5565 5564 5565 5565
5559 5555 5552 5550 5548 5545 5543 5542 5540 5539 5538 5538 5537 5537 5537 5534 5532 5534 5536 5541 5543 5543 5545 5547 5549 5551 5553 5555 5559 5560 5560 5560 5561 5562 5562 5562 5561 5559 5559 5560 5560 5561 5562
5555 5552 5549 5547 5544 5542 5540 5538 5537 5536 5535 5534 5533 5533 5533 5530 5528 5530 5532 5539 5539 5540 5541 5542 5544 5546 5544 5548 5554 5555 5556 5555 5554 5554 5554 5554 5554 5554 5554 5558 5560 5561 5560
5552 5549 5546 5543 5541 5539 5537 5536 5535 5534 5534 5533 5531 5531 5530 5528 5525 5526 5528 5537 5538 5539 5539 5539 5537 5539 5540 5543 5549 5551 5552 5552 5553 5553 5551 5551 5552 5552 5551 5553 5557 5559 5559
5549 5546 5543 5541 5538 5536 5534 5533 5533 5533 5532 5531 5530 5529 5528 5525 5524 5524 5526 5532 5535 5538 5539 5539 5536 5535 5537 5540 5543 5546 5547 5548 5552 5553 5553 5554 5554 5554 5554 5553 5554 5556 5557
5546 5543 5540 5538 5538 5536 5534 5533 5533 5532 5532 5531 5530 5530 5529 5527 5524 5523 5524 5526 5528 5534 5536 5537 5535 5534 5536 5539 5542 5542 5544 5547 5553 5554 5555 5555 5555 5555 5554 5553 5552 5552 5552
5544 5541 5539 5537 5536 5535 5534 5534 5534 5533 5534 5534 5534 5534 5533 5531 5527 5525 5525 5526 5528 5532 5534 5532 5533 5535 5537 5541 5541 5543 5547 5552 5554 5555 5555 5555 5555 5554 5553 5552 5552 5552 5552
5543 5541 5539 5538 5537 5535 5535 5537 5537 5536 5535 5536 5535 5535 5535 5534 5532 5531 5532 5532 5531 5534 5536 5536 5536 5539 5541 5542 5545 5549 5551 5552 5553 5554 5554 5555 5555 5555 5556 5557 5557 5557 5557
5545 5543 5541 5541 5540 5537 5537 5535 5535 5533 5532 5532 5535 5535 5535 5535 5530 5526 5529 5533 5535 5536 5537 5543 5547 5550 5552 5553 5553 5554 5554 5555 5555 5556 5556 5557 5557 5558 5558 5558 5557 5558 5558
5547 5545 5546 5545 5543 5543 5541 5539 5533 5532 5530 5529 5529 5529 5533 5531 5530 5530 5530 5531 5533 5534 5539 5548 5550 5553 5555 5557 5558 5558 5559 5559 5558 5558 5559 5559 5559 5560 5560 5561 5561 5561 5560
5549 5548 5549 5548 5547 5546 5545 5545 5543 5538 5534 5533 5533 5533 5532 5533 5533 5534 5534 5535 5537 5539 5546 5552 5555 5556 5558 5560 5561 5562 5562 5562 5560 5561 5561 5562 5562 5562 5562 5563 5563 5563 5562
5553 5550 5550 5551 5551 5551 5550 5550 5550 5550 5549 5547 5542 5539 5538 5538 5539 5539 5540 5540 5549 5550 5556 5559 5560 5561 5563 5564 5565 5565 5565 5565 5565 5565 5565 5564 5564 5564 5564 5564 5565 5563 5563
5558 5557 5555 5555 5555 5556 5555 5556 5557 5556 5557 5557 5557 5551 5546 5546 5545 5546 5546 5553 5560 5563 5565 5566 5567 5568 5568 5568 5568 5568 5568 5568 5567 5567 5567 5566 5567 5567 5567 5568 5568 5564 5562
5560 5557 5556 5559 5561 5562 5562 5562 5563 5563 5562 5563 5563 5563 5561 5559 5561 5561 5560 5563 5566 5569 5570 5571 5572 5572 5571 5572 5572 5573 5573 5572 5571 5571 5571 5571 5570 5570 5570 5569 5570 5569 5568
5568 5565 5558 5563 5566 5567 5567 5568 5568 5568 5569 5569 5570 5569 5562 5567 5569 5570 5572 5573 5573 5574 5575 5576 5577 5577 5577 5577 5578 5578 5577 5577 5576 5576 5575 5574 5574 5573 5572 5572 5571 5571 5570
5574 5574 5572 5572 5572 5572 5572 5573 5574 5574 5575 5575 5576 5575 5568 5571 5576 5578 5579 5580 5580 5580 5581 5580 5582 5583 5582 5583 5582 5581 5581 5580 5580 5579 5578 5577 5576 5576 5575 5574 5573 5572 5571
5578 5578 5578 5578 5577 5574 5576 5578 5579 5580 5581 5582 5583 5583 5582 5582 5584 5585 5585 5585 5585 5585 5585 5585 5584 5586 5586 5585 5584 5584 5584 5583 5582 5580 5578 5578 5578 5577 5576 5575 5573 5572 5571
5584 5584 5584 5583 5583 5583 5584 5584 5585 5586 5587 5587 5588 5589 5589 5589 5589 5590 5590 5590 5591 5590 5590 5590 5590 5589 5588 5586 5586 5587 5586 5583 5580 5580 5578 5577 5577 5577 5576 5575 5573 5572 5569
5590 5590 5590 5590 5590 5590 5590 5590 5591 5592 5592 5593 5593 5594 5595 5595 5596 5596 5596 5596 5595 5596 5595 5594 5594 5593 5592 5590 5589 5588 5586 5582 5579 5577 5576 5576 5576 5575 5574 5573 5572 5570 5568
5595 5595 5595 5596 5596 5595 5595 5595 5596 5597 5597 5598 5599 5600 5600 5601 5601 5602 5602 5601 5601 5601 5600 5599 5598 5597 5595 5594 5593 5590 5587 5584 5580 5577 5574 5574 5576 5575 5574 5572 5571 5568 5566